Notices

What's New in latest Release from April 7th, 2021:

- Updated Glossary, including Speed of Maximum Gust, and Total Hourly Precipitation

- Updated national and regional climate services offices contacts and prices information

- Addition of station inventory lists for 1981-2010, 1971-2000, and 1961-1990 Normals.

If you haven't already, please take our survey and provide feedback about our website: https://eccc.sondage-survey.ca/f/LanguageSelection.aspx?s=442ca660-fcf1-47c0-95a9-59707d6fd709

Hourly Data Report for November 18, 2006

TORONTO CITY
ONTARIO

43°40'00.000" N
79°24'00.000" W
112.50 m
6158355
71508
XTO

Download Data

Hourly Data (November 2006)
Hourly Data Report for November 18, 2006
TIME
LST
Temp Definition
°C
Dew Point Definition
°C
Rel Hum Definition
%
Precip. Amount Definition
mm

Wind Dir Definition
10's deg

Wind Spd Definition
km/h
Visibility Definition
km
Stn Press Definition
kPa
Hmdx Definition


Wind Chill Definition


Weather Definition


00:00 4.6 1.4 80   LegendMM LegendMM   100.29     LegendNANA
01:00 4.6 1.3 79   LegendMM LegendMM   100.32     LegendNANA
02:00 4.4 1.5 81   LegendMM LegendMM   100.30     LegendNANA
03:00 4.2 1.6 83   LegendMM LegendMM   100.30     LegendNANA
04:00 3.7 1.8 87   LegendMM LegendMM   100.30     LegendNANA
05:00 3.5 1.7 88   LegendMM LegendMM   100.34     LegendNANA
06:00 3.5 2.0 90   LegendMM LegendMM   100.37     LegendNANA
07:00 3.5 1.8 89   LegendMM LegendMM   100.39     LegendNANA
08:00 3.9 1.8 86   LegendMM LegendMM   100.43     LegendNANA
09:00 4.5 2.0 84   LegendMM LegendMM   100.45     LegendNANA
10:00 5.2 1.8 79   LegendMM LegendMM   100.44     LegendNANA
11:00 5.6 0.6 70   LegendMM LegendMM   100.42     LegendNANA
12:00 5.9 1.2 72   LegendMM LegendMM   100.37     LegendNANA
13:00 5.8 0.9 71   LegendMM LegendMM   100.35     LegendNANA
14:00 5.9 0.6 69   LegendMM LegendMM   100.33     LegendNANA
15:00 6.2 0.4 66   LegendMM LegendMM   100.34     LegendNANA
16:00 6.1 0.4 67   LegendMM LegendMM   100.35     LegendNANA
17:00 5.7 0.2 68   LegendMM LegendMM   100.36     LegendNANA
18:00 5.5 0.6 71   LegendMM LegendMM   100.39     LegendNANA
19:00 4.9 0.6 74   LegendMM LegendMM   100.41     LegendNANA
20:00 4.6 0.8 76   LegendMM LegendMM   100.44     LegendNANA
21:00 4.3 0.8 78   LegendMM LegendMM   100.44     LegendNANA
22:00 3.8 0.1 77   LegendMM LegendMM   100.43     LegendNANA
23:00 3.5 0.3 80   LegendMM LegendMM   100.41     LegendNANA

Notes on Data Quality.

Legend

  • E = Estimated
  • M = Missing
  • NA = Not Available*
  • [empty] = Indicates an unobserved value
Date modified: